User: anonymous   Login
Location: NJAA Observatory
(40.6819°N, 74.8979°W)
Time: 19:35:22
(UTC-05:00)
Language:

Cosmos 2082 - Orbit

View from above orbital plane
View from above orbital plane
View from above satellite
View from above satellite

Ground track
Ground track

The orbit data is extracted from the following two-line orbital elements,

1 20624U 90046A   16040.55746635 -.00000307  00000-0 -13613-3 0  9994
2 20624  71.0401 167.7270 0012864  54.8797 305.3529 14.14183592327401
Epoch (UTC): 09 February 2016 13:22:45
Eccentricity: 0.0012864
inclination: 71.0401°
perigee height: 836 km
apogee height: 854 km
right ascension of ascending node: 167.7270°
argument of perigee: 54.8797°
revolutions per day: 14.14183592
mean anomaly at epoch: 305.3529°
orbit number at epoch: 32740

The dashed part of the orbit path shows where the satellite is in the earth's shadow,  

DLR